Вернуться в каталог

STARLINK-35094

АктивенСвязьSSO
NORAD 65395·PAYLOAD·🇺🇸 United States

Запущен Aug 30, 2025 с Vandenberg Space Force Base

Loading…

Ближайшие Пролёты (ближайшие 24 часа)

TLE

СвежийSource: CelesTrak SupGP

Эпоха: Sep 14, 2026, 14:37 UTC

1 65395C 25191S   26257.60951389  .00032578  00000+0  10114-2 0  2579
2 65395  97.2844 123.7894 0002061  88.1028 169.9894 15.33417223    12

Отслеживайте STARLINK-35094 в реальном времени с AllMySat

Download on the App Store